Location: Carroll
(32.4774°N, 95.5202°W)
Time: 20:47:30
(UTC+01:00)

Daily predictions for brighter satellites

Satellite Brightness Start Highest point End
(mag) Time Altitude Azimuth Time Altitude Azimuth Time Altitude Azimuth
Thor Agena Rocket 3.5 12:05:39 10° SSE 12:10:54 88° ENE 12:10:58 87° NNE
Cosmos 2151 4.5 12:09:26 20° NNE 12:11:43 35° E 12:15:37 10° SSE
Cosmos 2227 4.2 12:10:35 26° SSW 12:13:49 79° ESE 12:19:27 10° NNE
USA 229 DEB 3.7 12:18:25 51° NW 12:20:13 69° WSW 12:27:24 10° SSE
USA 229 3.7 12:18:28 51° NW 12:20:19 70° WSW 12:27:30 10° SSE
Cosmos 2237 Rocket 4.3 12:24:44 13° SSW 12:24:44 13° SSW 12:25:26 10° SSW
Tiangong 2 3.4 12:26:22 21° NE 12:26:22 21° NE 12:27:35 10° NE
Cosmos 1328 3.9 12:26:19 73° ESE 12:26:19 73° ESE 12:30:07 10° S
SL-16 R/B 2.1 12:26:35 60° WNW 12:27:19 66° WSW 12:32:54 10° S
COSMO-SKYMED 1 3.2 12:26:35 10° SSE 12:30:49 55° ENE 12:34:26 14° N
Atlas 2A Centaur Rocket 3.4 12:32:35 25° SSW 12:33:50 29° S 12:36:18 10° ESE
NOAA 6 4.0 12:34:04 10° N 12:39:11 62° WNW 12:44:18 10° SSW
Meteor 1-28 Rocket 4.4 12:38:43 10° SSE 12:42:16 42° ENE 12:45:50 10° N
BREEZE-M DEB (TANK) 3.8 12:33:06 20° NW 12:43:15 87° SW 12:47:26 10° SE
Cosmos 1500 Rocket 3.7 12:46:48 48° W 12:46:55 48° W 12:51:12 10° SSW
Cosmos 2233 Rocket 4.3 12:41:08 10° SSW 12:46:56 40° W 12:52:49 10° N
Cosmos 1777 Rocket 4.0 12:43:48 10° SSW 12:48:52 52° WNW 12:53:57 10° N
Cosmos 2344 4.1 12:42:36 10° SSW 12:50:13 61° ESE 12:58:08 10° NE
Meteor 1-16 Rocket 4.2 12:46:14 10° SSW 12:51:28 48° W 12:56:37 10° N
Gbstr 26 Del rocket 3.6 12:49:22 15° SW 12:53:34 82° SE 12:59:49 10° NE
ERBS 2.3 12:54:15 49° NNW 12:55:03 81° NE 12:58:28 10° SE
Cosmos 304 Rocket 4.5 13:00:46 30° W 13:01:07 31° W 13:05:17 10° SSW
Meteor 1-11 4.2 12:58:23 10° NNW 13:04:09 66° W 13:09:52 10° S
Cosmos 1943 4.5 13:02:07 10° N 13:07:28 40° ENE 13:12:45 10° SE
Cosmos 2058 2.9 13:05:17 10° NNW 13:09:20 56° W 13:13:23 10° S
Cosmos 1340 Rocket 2.8 13:06:07 13° NNW 13:09:28 56° W 13:13:21 10° S
CZ-2C R/B 3.5 13:07:06 10° NNE 13:11:28 43° E 13:15:49 10° S
SL-14 R/B 3.9 13:10:11 23° NW 13:12:00 34° W 13:15:40 10° SSW
Cosmos 2034 Rocket 3.9 13:06:51 10° S 13:13:01 81° W 13:19:17 10° N
NOSS 3-1 (C) 4.1 13:05:39 10° NW 13:13:28 74° WSW 13:21:53 10° SSE
GPS 2-05 Rocket1 3.1 13:16:09 27° NW 13:17:33 50° N 13:20:46 10° E
SKYMED 2 4.1 13:14:55 10° SSW 13:18:54 36° W 13:22:55 10° NNW
DELTA 2 R/B (1) 4.0 13:16:47 20° WNW 13:20:19 45° NNW 13:25:39 10° ENE
CSL-04 Debris 4.1 13:16:07 10° N 13:21:35 78° WNW 13:27:01 10° SSW
Cosmos 2263 Rocket 2.2 13:18:25 10° SSW 13:24:04 87° WNW 13:29:48 10° NNE
Cosmos 2221 3.3 13:22:06 10° SW 13:25:54 30° W 13:29:43 10° NNW
ISS -1.7 13:24:59 18° WSW 13:26:01 21° SW 13:28:31 10° S
OAO 2 Rocket 3.4 13:23:05 18° W 13:26:40 62° SSW 13:31:31 10° ESE
YAOGAN 1 3.7 13:23:46 10° NNE 13:27:57 48° E 13:32:08 10° S
Ariane Rocket 3.3 13:23:47 10° N 13:28:35 43° WNW 13:33:22 10° SW
DELTA 2 R/B(2) 3.6 13:30:18 26° WNW 13:31:00 42° NNW 13:33:20 10° NE
Cosmos 1356 Rocket 3.4 13:27:16 10° NNW 13:31:21 62° W 13:35:30 10° S
Cosmos 923 Rocket 4.0 13:26:11 10° NNW 13:31:23 67° WSW 13:36:36 10° S
Cosmos 1603 3.9 13:26:13 10° NNW 13:31:40 51° WSW 13:37:07 10° S
Helios 1B rocket 4.4 13:29:19 10° SE 13:32:53 29° ENE 13:36:27 10° NNE
IDEFIX/ARIANE 42P 2.7 13:28:35 10° NNE 13:33:53 81° ESE 13:39:08 10° S
Cosmos 1908 3.1 13:30:53 10° SSW 13:34:40 68° W 13:38:29 10° N
Cosmos 1898 Rocket 3.6 13:31:28 10° SSW 13:36:41 82° ESE 13:41:59 10° NNE
Cosmos 1666 Rocket 3.5 13:34:23 10° N 13:38:50 71° W 13:43:17 10° S
Cosmos 1680 Rocket 3.5 13:33:42 10° NNW 13:39:00 77° WSW 13:44:18 10° S
Cosmos 1726 4.2 13:35:58 10° SSE 13:39:15 32° E 13:42:33 10° NNE
SJ-7 4.5 13:38:02 10° NNE 13:42:04 84° ESE 13:46:09 10° S
EP 1 4.3 13:40:44 10° SSW 13:43:35 81° ESE 13:46:08 10° NNE
Cosmos 2150 Rocket 4.3 13:39:40 10° S 13:45:06 80° ESE 13:50:30 10° NNE
CSL-04 Rocket 4.1 13:41:01 10° N 13:45:49 36° WNW 13:50:36 10° SW
IRS-1A Rocket 4.4 13:41:57 10° N 13:47:42 59° WNW 13:53:20 10° SSW
Genesis I 4.4 13:45:20 10° NW 13:48:34 25° WSW 13:51:47 10° SSW
CZ-3 Stage 3 3.8 13:44:50 10° W 13:49:40 60° S 14:13:56 10° ESE
PAYLOAD A 4.3 13:47:11 10° N 13:51:47 40° WNW 13:56:13 10° SW
Cosmos 1300 3.8 13:48:33 10° SSE 13:52:13 49° E 13:55:56 10° NNE
ASTRO E2 4.4 13:51:37 10° SW 13:55:15 33° SSE 13:58:52 10° E
SJ-12 4.3 13:53:06 10° N 13:56:57 42° WNW 14:00:47 10° SW
Cosmos 389 Rocket 3.5 13:54:01 10° SW 13:57:13 28° WNW 14:00:25 10° NNW
Cosmos 292 Rocket 4.4 13:52:56 10° NW 13:57:21 37° WSW 14:01:44 10° SSW
